THOR AGENA B R/B, 1807

Orbit data source: Space-Track

THOR AGENA B R/B, 1807 is space debris in LEO originally from a launch on Mon, 29 Nov 1965 UTC launched from the Air Force Western Test Range (AFWTR). Debris objects in space refer to the collection of defunct objects orbiting the Earth. Examples of debris include non-operational satellites, rocket bodies, and fragments generated from explosions, collisions, or faulty payload assembly.

Loading next visibility...
Identifier
1807, 1965-098C
Orbit
LEO
Country
Flag of USUS
Related business
Manufacturer
LMSC
Mission
Spacecraft
Bus & Motor
AGENA B, Unknown motor
Mass
600 kg wet, 600 kg dry
Launch date (UTC)
1965-11-29 (60 years ago)
Launch vehicle
Unknown
Launch site
Air Force Western Test Range (AFWTR)
Object type
Payload
Rocket body
Debris
Shape & HBR
Unknown
Radar Cross Section
Large (>1 m²)

Expand to show TLE details & history
Last TLE update: 11 hours ago

TLE from 11 hours ago
0 THOR AGENA B R/B
1 01807U 65098C   26128.21367671  .00000598  00000-0  18955-3 0  9999
2 01807  79.8345  75.3733 1331154 111.7992 262.9847 12.28041821668399
Epoch: 2026-05-08T05:07Z
TLE epoch observation values (Epoch: 2026-05-08T05:07:41.667Z)
Latitude
-0.00006°
Longitude
132.40099°
Altitude
1,823.22 km
Speed
6.856 km/s
True Right ascension
05h 01m 29s
True Declination
0° 00' 00"
Sunlit
Object was in daylight at epoch
Visualization orbit readout
Latitude
Unknown
Longitude
Unknown
Altitude
Unknown
Speed
Unknown
Apparent Right ascension
Unknown
Apparent Declination
Unknown
Sunlit
N/A
Visualization observer readout
Local Sidereal Time
00:10:32
Azimuth
Unknown
Elevation
Unknown
Doppler factor
Unknown
Orbital elements
Apogee altitude
2,611.167 km
Perigee altitude
499.088 km
Semi-major axis
7,933.265 km
Eccentricity
0.13312
Inclination
79.8345°
RAAN
75.3733°
Arg. of periapsis
111.7992°
True anomaly
248.3084°
Mean anomaly
262.9847°
Eccentric anomaly
255.59745°
Mean motion
3.0716 °/min
Orbital period
117.2 mins
BSTAR
0.00018955
Loading maneuver chart data...
Computing Atmospheric mass density...
Loading historical data...
Loading historical data...
Loading historical data...
Loading historical data...
Loading historical data...
Loading historical data...
Loading historical data...

Documentation

Showing up to 5 results
|